RS-38S
1 57189U 23091Z   26191.78954493  .00011541  00000-0  32313-3 0  9990
2 57189  97.5086 261.7582 0006058 357.6848   2.4367 15.36784473168317
SONATE-2
1 59112U 24043Q   26190.40279728  .00036930  00000-0  44852-3 0  9995
2 59112  97.5552 342.1927 0006781 123.5255 236.6650 15.60482785131353
GRBBeta
1 60237U 24128C   26190.31968764  .00002568  00000-0  18354-3 0  9992
2 60237  61.9890 138.6053 0037769 139.4381 220.9537 15.06782844109609
Curium One
1 60242U 24128H   26191.37264630  .00005204  00000-0  30262-3 0  9998
2 60242  61.9779 123.6362 0037176 135.3388 225.0713 15.12824295109967
ROBUSTA-3A
1 60243U 24128J   26191.35065779  .00005254  00000-0  31252-3 0  9995
2 60243  61.9855 126.3140 0038513 133.0366 227.3967 15.11942365109924
CatSat
1 60246U 24125J   26191.67896689  .00057338  00000-0  65458-3 0  9997
2 60246  97.2070  44.5337 0020939  98.9678 261.3951 15.61755421111053
HYPERVIEW-1G (RS66S)
1 61772U 24199AP  26191.75740396  .00170622  00000-0  75966-3 0  9992
2 61772  97.2811  72.7919 0008133 156.1713 203.9935 15.83806028138393
AO-123
1 61781U 24199AY  26191.75045221  .00005144  00000-0  14868-3 0  9997
2 61781  97.2977  60.2107 0012541 217.6050 142.4318 15.36012386137544
JINJUSat 1B
1 63210U 25052A   26191.17459500  .00012262  00000-0  37201-3 0  9995
2 63210  97.3980  87.9689 0003790  41.9943 318.1589 15.34247860 73629
NUSHSAT 1
1 63211U 25052B   26191.76596194  .00014544  00000-0  40471-3 0  9990
2 63211  97.3957  89.2115 0003658  48.8808 311.2752 15.36924747 73761
TEVEL2-4
1 63213U 25052D   26191.19356909  .00014962  00000-0  43632-3 0  9993
2 63213  97.3878  87.6327 0003948  61.8463 298.3179 15.35449106 73641
TEVEL2-5
1 63214U 25052E   26189.65245370  .00014062  00000-0  41324-3 0  9998
2 63214  97.3873  86.0291 0004130  66.2017 293.9660 15.35218873 73403
TEVEL2-6
1 63215U 25052F   26190.77333909  .00013669  00000-0  40184-3 0  9995
2 63215  97.3877  87.1376 0003968  66.9512 293.2149 15.35215103 73575
TEVEL2-1
1 63217U 25052H   26191.13644781  .00013953  00000-0  41737-3 0  9992
2 63217  97.3849  87.0975 0004544  70.7123 289.4612 15.34661443 73610
TEVEL2-3
1 63218U 25052J   26191.13021186  .00014288  00000-0  42647-3 0  9994
2 63218  97.3855  87.1167 0004351  70.9758 289.1956 15.34723182 73611
TEVEL2-2
1 63219U 25052K   26189.50651823  .00013021  00000-0  39012-3 0  9996
2 63219  97.3852  85.4689 0004705  73.9445 286.2316 15.34625790 73364
TEVEL2-9
1 63237U 25052AD  26189.64245198  .00012819  00000-0  40918-3 0  9996
2 63237  97.3915  84.9331 0008135  74.7614 285.4527 15.32589963 73319
TEVEL2-7
1 63238U 25052AE  26191.18957883  .00012809  00000-0  41238-3 0  9995
2 63238  97.3916  86.3844 0008113  70.6431 289.5687 15.32316838 73540
TEVEL2-8
1 63239U 25052AF  26189.69605479  .00011621  00000-0  37502-3 0  9990
2 63239  97.3912  84.8694 0008176  75.3495 284.8653 15.32263765 73310
SPIRONE
1 66657U 25274H   26191.23391490  .00001271  00000-0  12564-3 0  9992
2 66657  97.7475 120.1966 0010539 302.7526  57.2677 14.93643825 33666
K-HERO
1 66660U 25274L   26190.22752726  .00001691  00000-0  16365-3 0  9996
2 66660  97.7483 119.3817 0012497 310.4997  49.5133 14.94050554 33525
SNUGLITE-III DURI
1 66661U 25274M   26190.41569969  .00001559  00000-0  15112-3 0  9995
2 66661  97.7481 119.5883 0013240 310.1980  49.8081 14.94079017 33558
SAKHACUBE-CHOLBON
1 67290U 25313AU  26191.19005553  .00006495  00000-0  26060-3 0  9996
2 67290  97.3928 265.9422 0007595 272.5219  87.5150 15.25304127 29487
RS95S (QMR-KWT-2)
1 67291U 25313AV  26191.15582059  .00010553  00000-0  40184-3 0  9997
2 67291  97.3927 266.1344 0007300 268.0130  92.0273 15.26893419 29495
Ten-Koh2
1 68261U 25241B   26191.09765522  .00003091  00000-0  13898-3 0  9997
2 68261  51.6610 210.5780 0004636 212.6797 147.3894 15.24143750 18401
JACK-002
1 68417U 26067B   26190.68278499  .00004597  00000-0  21868-3 0  9991
2 68417  97.4574 149.0003 0002504 144.8947 215.2453 15.19672474 15362
DISCO 2
1 68431U 26067R   26190.11548802  .00005516  00000-0  26371-3 0  9999
2 68431  97.4606 148.4284 0000136  47.5002 312.6245 15.19411346 15278
HADES-SA (SpinnyONE)
1 68446U 26067AG  26191.33685439  .00013085  00000-0  61192-3 0  9998
2 68446  97.4404 149.2997 0006757  20.0571 340.0928 15.19877760 15440
PARUS-6U1
1 68456U 26067AS  26191.59492703  .00003328  00000-0  16809-3 0  9991
2 68456  97.4559 149.6034 0005295   5.0754 355.0532 15.17764359 15488
SAL-E
1 68458U 26067AU  26191.78370600  .00004794  00000-0  23835-3 0  9990
2 68458  97.4482 149.7125 0005878  13.7385 346.4008 15.18099686 15511
FSI-SAT 2
1 68792U 26088A   26191.39364801  .00002149  00000-0  14723-3 0  9995
2 68792  97.5088 340.0762 0015039  34.2421 325.9773 15.07019922 11786
OrigamiSat 2
1 68795U 26088D   26191.23844571  .00008453  00000-0  53346-3 0  9996
2 68795  97.5083 340.1338 0014465   3.6295 356.5037 15.09253765 11774
ARICA 2
1 68796U 26088E   26191.31131444  .00002638  00000-0  17229-3 0  9993
2 68796  97.5079 340.1757 0015475   4.6829 355.4542 15.08606213 11780
WASEDA-SAT-ZERO-II
1 68797U 26088F   26191.36949412  .00004447  00000-0  28532-3 0  9990
2 68797  97.5075 340.2492 0015170   3.5897 356.5438 15.08897264 11794
MANGARO-II-Piscus
1 68798U 26088G   26191.29215900  .00002923  00000-0  18844-3 0  9993
2 68798  97.5091 340.2088 0018953   6.5912 353.5562 15.08947739 11784
IO-86
1 40931U          25360.30710720  .00000000  00000-0  12800-3 0    00
2 40931   6.0006 332.5373 0012733 338.8432   8.1437 14.79075515    01
LILIUM-4                
1 71922C 26067AC  26089.50133053 -.00014632  00000+0 -74472-3 0    04
2 71922  97.4497  49.1617 0004341   5.9603 355.7042 15.16896692    16
